Tenerife > ESTACION METEOROLÓGICA La Victoria de Acentejo

DATOS ACTUALES Online

Ultima actulizacion 1 h 36 minutos

18.8 ºC

Temperatura

63

Humedad (%)

Presión (mb)

0

Precipitación (mm)

1.2 O

Viento (Km/h)

DATOS DIARIOS

Temperatura últimas 24 horas (ºC)

Humedad últimas 24 horas (%)

Presión atmosférica últimas 24 horas (mb)

Precipitaciones últimas 23 horas (mm)

Viento últimas 24 horas (Km/h)

Hora Temperatura (°C) ºC Precipitación (mm) mm Presión (mb) mb Humedad (%) % Viento (Km/h) km/h
15 - 23:00 17.1 0.2 0 91 1.8 SO
16 - 00:00 16.9 0 0 87 1.4 S
16 - 01:00 16.6 0 0 76 1.8 S
16 - 02:00 16.5 0 0 69 1.6 SO
16 - 03:00 16.2 0 0 67 1.7 SW
16 - 04:00 16.3 0 0 65 1.4 S
16 - 05:00 16.7 0 0 76 0.8 SW
16 - 06:00 15.6 0 0 73 1.3 SO
16 - 07:00 16.5 0 0 75 2.8 S
16 - 08:00 16.5 0 0 67 1.6 O
16 - 09:00 18.8 0 0 67 1.2 SW
16 - 10:00 20.8 0 0 79 1 NW
16 - 11:00 21.9 0 0 81 1.8 N
16 - 12:00 21.3 0 0 84 2.5 N
16 - 13:00 21.4 0 0 85 2.3 N
16 - 14:00 23.3 0 0 76 2.4 N
16 - 15:00 23.1 0 0 77 3.1 N
16 - 16:00
16 - 17:00 23.3 0 0 73 3.8 N
16 - 18:00 21.2 0 0 80 3.1 N
16 - 19:00 21.3 0 0 81 2.8 N
16 - 20:00 20.5 0 0 82 2.2 NO
16 - 21:00 19.7 0 0 85 0.8 W
16 - 22:00 18.8 0 0 63 1.2 O
16 - 23:00
Apalmet utiliza cookies propias y de terceros para mejorar la usabilidad y la experiencia web. Política de cookies.